User: anonymous   Login
Location: Unspecified
(0.0000°N, 0.0000°E)
Time: 14:02:35
(UTC+00:00)
Language:

USA 287 - Orbit

View from above orbital plane
View from above orbital plane
View from above satellite
View from above satellite

Ground track
Ground track

The orbit data is extracted from the following two-line orbital elements,

1 43465U 18036G   18252.77941273 0.00000000  00000-0  00000-0 0    01
2 43465   0.0749  82.4542 0007201 291.6785  68.2500  1.00929436    02
Epoch (UTC): 09 September 2018 18:42:21
Eccentricity: 0.0007201
inclination: 0.0749°
perigee height: 35572 km
apogee height: 35633 km
right ascension of ascending node: 82.4542°
argument of perigee: 291.6785°
revolutions per day: 1.00929436
mean anomaly at epoch: 68.2500°
orbit number at epoch: 0

The dashed part of the orbit path shows where the satellite is in the earth's shadow,  

DLR